Time,TemperatureF,DewpointF,PressureIn,WindDirection,WindDirectionDegrees,WindSpeedMPH,WindSpeedGustMPH,Humidity,HourlyPrecipIn,Conditions,Clouds,dailyrainin,SoftwareType,DateUTC
2013-03-17 00:00:00,10.9,-5.8,29.21,North,0,0.0,0.0,46,0.00,,CLR,0.00,VWS V14.01,2013-03-17 05:00:00,
2013-03-17 00:05:00,10.7,-6.0,29.21,North,0,0.0,0.0,46,0.00,,CLR,0.00,VWS V14.01,2013-03-17 05:05:00,
2013-03-17 00:10:00,10.6,-6.1,29.21,North,0,0.0,0.0,46,0.00,,CLR,0.00,VWS V14.01,2013-03-17 05:10:00,
2013-03-17 00:15:00,10.7,-6.0,29.21,North,0,0.0,0.0,46,0.00,,CLR,0.00,VWS V14.01,2013-03-17 05:15:00,
2013-03-17 00:20:00,10.6,-6.1,29.21,North,0,0.0,0.0,46,0.00,,CLR,0.00,VWS V14.01,2013-03-17 05:20:00,
2013-03-17 00:25:00,10.4,-6.3,29.21,North,0,0.0,0.0,46,0.00,,CLR,0.00,VWS V14.01,2013-03-17 05:25:00,
2013-03-17 00:30:00,10.2,-6.5,29.21,North,0,0.0,0.0,46,0.00,,CLR,0.00,VWS V14.01,2013-03-17 05:30:00,
2013-03-17 00:35:00,10.0,-6.6,29.21,North,0,0.0,0.0,46,0.00,,CLR,0.00,VWS V14.01,2013-03-17 05:35:00,
2013-03-17 00:40:00,9.8,-6.8,29.21,North,0,0.0,0.0,46,0.00,,CLR,0.00,VWS V14.01,2013-03-17 05:40:00,
2013-03-17 00:45:00,9.5,-7.1,29.21,North,0,0.0,0.0,46,0.00,,CLR,0.00,VWS V14.01,2013-03-17 05:45:00,
2013-03-17 00:50:00,9.1,-7.4,29.23,North,0,0.0,0.0,46,0.00,,CLR,0.00,VWS V14.01,2013-03-17 05:50:00,
2013-03-17 00:55:00,8.9,-7.6,29.23,North,0,0.0,0.0,46,0.00,,CLR,0.00,VWS V14.01,2013-03-17 05:55:00,
2013-03-17 01:00:00,8.8,-7.8,29.23,North,0,0.0,0.0,46,0.00,,CLR,0.00,VWS V14.01,2013-03-17 06:00:00,
2013-03-17 01:05:00,8.6,-7.9,29.23,North,0,0.0,0.0,46,0.00,,CLR,0.00,VWS V14.01,2013-03-17 06:05:00,
2013-03-17 01:10:00,8.2,-8.3,29.23,North,0,0.0,0.0,46,0.00,,CLR,0.00,VWS V14.01,2013-03-17 06:10:00,
2013-03-17 01:15:00,7.9,-8.6,29.23,North,0,0.0,0.0,46,0.00,,CLR,0.00,VWS V14.01,2013-03-17 06:15:00,
2013-03-17 01:21:00,7.7,-8.8,29.23,North,0,0.0,0.0,46,0.00,,CLR,0.00,VWS V14.01,2013-03-17 06:21:00,
2013-03-17 01:26:00,7.7,-8.8,29.23,North,0,0.0,0.0,46,0.00,,CLR,0.00,VWS V14.01,2013-03-17 06:26:00,
2013-03-17 01:31:00,7.5,-8.9,29.23,North,0,0.0,0.0,46,0.00,,CLR,0.00,VWS V14.01,2013-03-17 06:31:00,
2013-03-17 01:36:00,7.0,-9.4,29.23,North,0,0.0,0.0,46,0.00,,CLR,0.00,VWS V14.01,2013-03-17 06:36:00,
2013-03-17 01:41:00,6.6,-9.8,29.23,North,0,0.0,0.0,46,0.00,,CLR,0.00,VWS V14.01,2013-03-17 06:41:00,
2013-03-17 01:46:00,6.4,-9.9,29.23,North,0,0.0,0.0,46,0.00,,CLR,0.00,VWS V14.01,2013-03-17 06:46:00,
2013-03-17 01:51:00,6.1,-10.3,29.23,North,0,0.0,0.0,46,0.00,,CLR,0.00,VWS V14.01,2013-03-17 06:51:00,
2013-03-17 01:56:00,5.9,-10.4,29.23,North,0,0.0,0.0,46,0.00,,CLR,0.00,VWS V14.01,2013-03-17 06:56:00,
2013-03-17 02:01:00,5.7,-10.6,29.23,North,0,0.0,0.0,46,0.00,,CLR,0.00,VWS V14.01,2013-03-17 07:01:00,
2013-03-17 02:06:00,5.5,-10.8,29.23,North,0,0.0,0.0,46,0.00,,CLR,0.00,VWS V14.01,2013-03-17 07:06:00,
2013-03-17 02:11:00,5.3,-10.9,29.23,North,0,0.0,0.0,46,0.00,,CLR,0.00,VWS V14.01,2013-03-17 07:11:00,
2013-03-17 02:16:00,5.2,-11.1,29.23,North,0,0.0,0.0,46,0.00,,CLR,0.00,VWS V14.01,2013-03-17 07:16:00,
2013-03-17 02:21:00,4.8,-11.4,29.26,North,0,0.0,0.0,46,0.00,,CLR,0.00,VWS V14.01,2013-03-17 07:21:00,
2013-03-17 02:26:00,4.4,-11.8,29.26,North,0,0.0,0.0,46,0.00,,CLR,0.00,VWS V14.01,2013-03-17 07:26:00,
2013-03-17 02:31:00,4.3,-11.9,29.26,North,0,0.0,0.0,46,0.00,,CLR,0.00,VWS V14.01,2013-03-17 07:31:00,
2013-03-17 02:36:00,3.9,-12.3,29.26,North,0,0.0,0.0,46,0.00,,CLR,0.00,VWS V14.01,2013-03-17 07:36:00,
2013-03-17 02:42:00,3.5,-12.6,29.26,North,0,0.0,0.0,46,0.00,,CLR,0.00,VWS V14.01,2013-03-17 07:42:00,
2013-03-17 02:47:00,3.4,-12.8,29.26,North,0,0.0,0.0,46,0.00,,CLR,0.00,VWS V14.01,2013-03-17 07:47:00,
2013-03-17 02:52:00,3.0,-13.1,29.26,North,0,0.0,0.0,46,0.00,,CLR,0.00,VWS V14.01,2013-03-17 07:52:00,
2013-03-17 02:57:00,2.8,-13.3,29.26,North,0,0.0,0.0,46,0.00,,CLR,0.00,VWS V14.01,2013-03-17 07:57:00,
2013-03-17 03:02:00,2.5,-13.6,29.26,North,0,0.0,0.0,46,0.00,,CLR,0.00,VWS V14.01,2013-03-17 08:02:00,
2013-03-17 03:07:00,2.3,-13.8,29.26,North,0,0.0,0.0,46,0.00,,CLR,0.00,VWS V14.01,2013-03-17 08:07:00,
2013-03-17 03:12:00,2.1,-13.9,29.26,North,0,0.0,0.0,46,0.00,,CLR,0.00,VWS V14.01,2013-03-17 08:12:00,
2013-03-17 03:17:00,1.9,-14.1,29.26,North,0,0.0,0.0,46,0.00,,CLR,0.00,VWS V14.01,2013-03-17 08:17:00,
2013-03-17 03:22:00,1.6,-14.4,29.26,North,0,0.0,0.0,46,0.00,,CLR,0.00,VWS V14.01,2013-03-17 08:22:00,
2013-03-17 03:27:00,1.2,-14.8,29.26,North,0,0.0,0.0,46,0.00,,CLR,0.00,VWS V14.01,2013-03-17 08:27:00,
2013-03-17 03:32:00,0.8,-15.1,29.26,North,0,0.0,0.0,46,0.00,,CLR,0.00,VWS V14.01,2013-03-17 08:32:00,
2013-03-17 03:37:00,0.5,-15.4,29.26,North,0,0.0,0.0,46,0.00,,CLR,0.00,VWS V14.01,2013-03-17 08:37:00,
2013-03-17 03:42:00,-0.1,-15.9,29.26,North,0,0.0,0.0,46,0.00,,CLR,0.00,VWS V14.01,2013-03-17 08:42:00,
2013-03-17 03:47:00,-0.4,-16.2,29.26,North,0,0.0,0.0,46,0.00,,CLR,0.00,VWS V14.01,2013-03-17 08:47:00,
2013-03-17 03:52:00,-0.8,-16.6,29.26,North,0,0.0,0.0,46,0.00,,CLR,0.00,VWS V14.01,2013-03-17 08:52:00,
2013-03-17 03:57:00,-1.0,-16.7,29.26,North,0,0.0,0.0,46,0.00,,CLR,0.00,VWS V14.01,2013-03-17 08:57:00,
2013-03-17 04:02:00,-1.3,-17.1,29.26,North,0,0.0,0.0,46,0.00,,CLR,0.00,VWS V14.01,2013-03-17 09:02:00,
2013-03-17 04:07:00,-1.5,-17.2,29.26,North,0,0.0,0.0,46,0.00,,CLR,0.00,VWS V14.01,2013-03-17 09:07:00,
2013-03-17 04:12:00,-1.7,-17.4,29.26,North,0,0.0,0.0,46,0.00,,CLR,0.00,VWS V14.01,2013-03-17 09:12:00,
2013-03-17 04:17:00,-1.9,-17.6,29.26,North,0,0.0,0.0,46,0.00,,CLR,0.00,VWS V14.01,2013-03-17 09:17:00,
2013-03-17 04:22:00,-1.7,-17.4,29.26,North,0,0.0,0.0,46,0.00,,CLR,0.00,VWS V14.01,2013-03-17 09:22:00,
2013-03-17 04:27:00,-1.7,-17.4,29.26,North,0,0.0,0.0,46,0.00,,CLR,0.00,VWS V14.01,2013-03-17 09:27:00,
2013-03-17 04:32:00,-1.9,-17.6,29.26,North,0,0.0,0.0,46,0.00,,CLR,0.00,VWS V14.01,2013-03-17 09:32:00,
2013-03-17 04:37:00,-2.0,-17.7,29.23,North,0,0.0,0.0,46,0.00,,CLR,0.00,VWS V14.01,2013-03-17 09:37:00,
2013-03-17 04:42:00,-2.0,-17.7,29.23,North,0,0.0,0.0,46,0.00,,CLR,0.00,VWS V14.01,2013-03-17 09:42:00,
2013-03-17 04:47:00,-2.0,-17.7,29.23,North,0,0.0,0.0,46,0.00,,CLR,0.00,VWS V14.01,2013-03-17 09:47:00,
2013-03-17 04:52:00,-2.0,-17.7,29.26,North,0,0.0,0.0,46,0.00,,CLR,0.00,VWS V14.01,2013-03-17 09:52:00,
2013-03-17 04:57:00,-1.9,-17.6,29.26,North,0,0.0,0.0,46,0.00,,CLR,0.00,VWS V14.01,2013-03-17 09:57:00,
2013-03-17 05:02:00,-1.3,-17.1,29.23,North,0,0.0,0.0,46,0.00,,CLR,0.00,VWS V14.01,2013-03-17 10:02:00,
2013-03-17 05:07:00,-1.1,-16.9,29.23,North,0,0.0,0.0,46,0.00,,CLR,0.00,VWS V14.01,2013-03-17 10:07:00,
2013-03-17 05:12:00,-1.0,-16.7,29.23,North,0,0.0,0.0,46,0.00,,CLR,0.00,VWS V14.01,2013-03-17 10:12:00,
2013-03-17 05:17:00,-1.1,-16.9,29.26,North,0,0.0,0.0,46,0.00,,CLR,0.00,VWS V14.01,2013-03-17 10:17:00,
2013-03-17 05:22:00,-1.3,-17.1,29.26,North,0,0.0,0.0,46,0.00,,CLR,0.00,VWS V14.01,2013-03-17 10:22:00,
2013-03-17 05:27:00,-1.5,-17.2,29.26,North,0,0.0,0.0,46,0.00,,CLR,0.00,VWS V14.01,2013-03-17 10:27:00,
2013-03-17 05:32:00,-1.7,-17.4,29.26,North,0,0.0,0.0,46,0.00,,CLR,0.00,VWS V14.01,2013-03-17 10:32:00,
2013-03-17 05:37:00,-2.0,-17.7,29.23,North,0,0.0,0.0,46,0.00,,CLR,0.00,VWS V14.01,2013-03-17 10:37:00,
2013-03-17 05:42:00,-2.4,-18.1,29.23,North,0,0.0,0.0,46,0.00,,CLR,0.00,VWS V14.01,2013-03-17 10:42:00,
2013-03-17 05:47:00,-2.6,-18.2,29.26,North,0,0.0,0.0,46,0.00,,CLR,0.00,VWS V14.01,2013-03-17 10:47:00,
2013-03-17 05:52:00,-2.8,-18.4,29.26,North,0,0.0,0.0,46,0.00,,CLR,0.00,VWS V14.01,2013-03-17 10:52:00,
2013-03-17 05:57:00,-2.9,-18.6,29.26,North,0,0.0,0.0,46,0.00,,CLR,0.00,VWS V14.01,2013-03-17 10:57:00,
2013-03-17 06:02:00,-2.9,-18.6,29.26,North,0,0.0,0.0,46,0.00,,CLR,0.00,VWS V14.01,2013-03-17 11:02:00,
2013-03-17 06:07:00,-2.9,-18.6,29.26,North,0,0.0,0.0,46,0.00,,CLR,0.00,VWS V14.01,2013-03-17 11:07:00,
2013-03-17 06:12:00,-2.8,-18.4,29.26,North,0,0.0,0.0,46,0.00,,CLR,0.00,VWS V14.01,2013-03-17 11:12:00,
2013-03-17 06:17:00,-2.8,-18.4,29.26,North,0,0.0,0.0,46,0.00,,CLR,0.00,VWS V14.01,2013-03-17 11:17:00,
2013-03-17 06:22:00,-2.9,-18.6,29.26,North,0,0.0,0.0,46,0.00,,CLR,0.00,VWS V14.01,2013-03-17 11:22:00,
2013-03-17 06:27:00,-3.1,-18.7,29.26,North,0,0.0,0.0,46,0.00,,CLR,0.00,VWS V14.01,2013-03-17 11:27:00,
2013-03-17 06:33:00,-3.3,-18.9,29.26,North,0,0.0,0.0,46,0.00,,CLR,0.00,VWS V14.01,2013-03-17 11:33:00,
2013-03-17 06:38:00,-3.5,-19.1,29.26,North,0,0.0,0.0,46,0.00,,CLR,0.00,VWS V14.01,2013-03-17 11:38:00,
2013-03-17 06:42:00,-3.3,-18.9,29.26,North,0,0.0,0.0,46,0.00,,CLR,0.00,VWS V14.01,2013-03-17 11:42:00,
2013-03-17 06:48:00,-3.5,-19.1,29.26,North,0,0.0,0.0,46,0.00,,CLR,0.00,VWS V14.01,2013-03-17 11:48:00,
2013-03-17 06:53:00,-3.5,-19.1,29.26,North,0,0.0,0.0,46,0.00,,CLR,0.00,VWS V14.01,2013-03-17 11:53:00,
2013-03-17 06:58:00,-3.7,-19.2,29.26,North,0,0.0,0.0,46,0.00,,CLR,0.00,VWS V14.01,2013-03-17 11:58:00,
2013-03-17 07:03:00,-3.8,-19.4,29.26,North,0,0.0,0.0,46,0.00,,CLR,0.00,VWS V14.01,2013-03-17 12:03:00,
2013-03-17 07:08:00,-3.8,-19.4,29.26,North,0,0.0,0.0,46,0.00,,CLR,0.00,VWS V14.01,2013-03-17 12:08:00,
2013-03-17 07:13:00,-3.8,-19.4,29.26,North,0,0.0,0.0,46,0.00,,CLR,0.00,VWS V14.01,2013-03-17 12:13:00,
2013-03-17 07:18:00,-3.8,-19.4,29.26,North,0,0.0,0.0,46,0.00,,CLR,0.00,VWS V14.01,2013-03-17 12:18:00,
2013-03-17 07:23:00,-3.8,-19.4,29.26,North,0,0.0,0.0,46,0.00,,CLR,0.00,VWS V14.01,2013-03-17 12:23:00,
2013-03-17 07:28:00,-3.7,-19.2,29.26,North,0,0.0,0.0,46,0.00,,CLR,0.00,VWS V14.01,2013-03-17 12:28:00,
2013-03-17 07:33:00,-3.7,-19.2,29.26,North,0,0.0,0.0,46,0.00,,CLR,0.00,VWS V14.01,2013-03-17 12:33:00,
2013-03-17 07:38:00,-3.5,-19.1,29.26,North,0,0.0,0.0,46,0.00,,CLR,0.00,VWS V14.01,2013-03-17 12:38:00,
2013-03-17 07:43:00,-3.3,-18.9,29.26,North,0,0.0,0.0,46,0.00,,CLR,0.00,VWS V14.01,2013-03-17 12:43:00,
2013-03-17 07:48:00,-3.1,-18.7,29.26,North,0,0.0,0.0,46,0.00,,CLR,0.00,VWS V14.01,2013-03-17 12:48:00,
2013-03-17 07:53:00,-2.9,-18.6,29.26,North,0,0.0,0.0,46,0.00,,CLR,0.00,VWS V14.01,2013-03-17 12:53:00,
2013-03-17 07:58:00,-2.4,-18.1,29.26,North,0,0.0,0.0,46,0.00,,CLR,0.00,VWS V14.01,2013-03-17 12:58:00,
2013-03-17 08:03:00,-2.0,-17.7,29.26,North,0,0.0,0.0,46,0.00,,CLR,0.00,VWS V14.01,2013-03-17 13:03:00,
2013-03-17 08:08:00,-1.3,-17.1,29.26,North,0,0.0,0.0,46,0.00,,CLR,0.00,VWS V14.01,2013-03-17 13:08:00,
2013-03-17 08:13:00,-0.4,-16.2,29.26,North,0,0.0,0.0,46,0.00,,CLR,0.00,VWS V14.01,2013-03-17 13:13:00,
2013-03-17 08:18:00,0.7,-15.2,29.26,North,0,0.0,0.0,46,0.00,,CLR,0.00,VWS V14.01,2013-03-17 13:18:00,
2013-03-17 08:23:00,1.6,-14.4,29.26,North,0,0.0,0.0,46,0.00,,CLR,0.00,VWS V14.01,2013-03-17 13:23:00,
2013-03-17 08:28:00,2.5,-13.6,29.26,North,0,0.0,0.0,46,0.00,,CLR,0.00,VWS V14.01,2013-03-17 13:28:00,
2013-03-17 08:33:00,3.2,-12.9,29.26,North,0,0.0,0.0,46,0.00,,CLR,0.00,VWS V14.01,2013-03-17 13:33:00,
2013-03-17 08:38:00,3.9,-12.3,29.26,North,0,0.0,0.0,46,0.00,,CLR,0.00,VWS V14.01,2013-03-17 13:38:00,
2013-03-17 08:43:00,4.3,-11.9,29.26,North,0,0.0,0.0,46,0.00,,CLR,0.00,VWS V14.01,2013-03-17 13:43:00,
2013-03-17 08:48:00,4.6,-11.6,29.26,North,0,0.0,0.0,46,0.00,,CLR,0.00,VWS V14.01,2013-03-17 13:48:00,
2013-03-17 08:53:00,5.3,-10.9,29.26,North,0,0.0,0.0,46,0.00,,CLR,0.00,VWS V14.01,2013-03-17 13:53:00,
2013-03-17 08:58:00,6.2,-10.1,29.26,North,0,0.0,0.0,46,0.00,,CLR,0.00,VWS V14.01,2013-03-17 13:58:00,
2013-03-17 09:03:00,7.5,-8.9,29.26,North,0,0.0,0.0,46,0.00,,CLR,0.00,VWS V14.01,2013-03-17 14:03:00,
2013-03-17 09:08:00,8.4,-8.1,29.26,North,0,0.0,0.0,46,0.00,,CLR,0.00,VWS V14.01,2013-03-17 14:08:00,
2013-03-17 09:13:00,9.7,-6.9,29.26,North,0,0.0,0.0,46,0.00,,CLR,0.00,VWS V14.01,2013-03-17 14:13:00,
2013-03-17 09:18:00,10.7,-6.0,29.26,North,0,0.0,0.0,46,0.00,,CLR,0.00,VWS V14.01,2013-03-17 14:18:00,
2013-03-17 09:23:00,10.9,-5.8,29.26,North,0,0.0,0.0,46,0.00,,CLR,0.00,VWS V14.01,2013-03-17 14:23:00,
2013-03-17 09:28:00,11.5,-5.3,29.26,North,0,0.0,0.0,46,0.00,,CLR,0.00,VWS V14.01,2013-03-17 14:28:00,
2013-03-17 09:33:00,12.4,-5.4,29.26,North,0,0.0,0.0,44,0.00,,CLR,0.00,VWS V14.01,2013-03-17 14:33:00,
2013-03-17 09:38:00,12.9,-4.9,29.26,North,0,0.0,0.0,44,0.00,,CLR,0.00,VWS V14.01,2013-03-17 14:38:00,
2013-03-17 09:43:00,13.1,-5.2,29.26,North,0,0.0,0.0,43,0.00,,CLR,0.00,VWS V14.01,2013-03-17 14:43:00,
2013-03-17 09:48:00,13.3,-5.5,29.26,North,0,0.0,0.0,42,0.00,,CLR,0.00,VWS V14.01,2013-03-17 14:48:00,
2013-03-17 09:53:00,13.4,-5.9,29.26,North,0,0.0,0.0,41,0.00,,CLR,0.00,VWS V14.01,2013-03-17 14:53:00,
2013-03-17 09:58:00,13.8,-5.5,29.26,North,0,0.0,0.0,41,0.00,,CLR,0.00,VWS V14.01,2013-03-17 14:58:00,
2013-03-17 10:03:00,14.7,-4.7,29.26,North,0,0.0,0.0,41,0.00,,CLR,0.00,VWS V14.01,2013-03-17 15:03:00,
2013-03-17 10:08:00,15.6,-3.9,29.26,North,0,0.0,0.0,41,0.00,,CLR,0.00,VWS V14.01,2013-03-17 15:08:00,
2013-03-17 10:13:00,16.1,-4.4,29.26,North,0,0.0,0.0,39,0.00,,CLR,0.00,VWS V14.01,2013-03-17 15:13:00,
2013-03-17 10:18:00,16.7,-4.0,29.26,North,0,0.0,0.0,39,0.00,,CLR,0.00,VWS V14.01,2013-03-17 15:18:00,
2013-03-17 10:23:00,17.6,-3.7,29.26,North,0,0.0,0.0,38,0.00,,CLR,0.00,VWS V14.01,2013-03-17 15:23:00,
2013-03-17 10:29:00,17.4,-3.8,29.26,North,0,0.0,0.0,38,0.00,,CLR,0.00,VWS V14.01,2013-03-17 15:29:00,
2013-03-17 10:34:00,17.6,-4.2,29.26,North,0,0.0,0.0,37,0.00,,CLR,0.00,VWS V14.01,2013-03-17 15:34:00,
2013-03-17 10:39:00,18.1,-3.8,29.26,North,0,0.0,0.0,37,0.00,,CLR,0.00,VWS V14.01,2013-03-17 15:39:00,
2013-03-17 10:44:00,18.3,-4.2,29.26,North,0,0.0,0.0,36,0.00,,CLR,0.00,VWS V14.01,2013-03-17 15:44:00,
2013-03-17 10:49:00,18.7,-3.3,29.26,North,0,0.0,0.0,37,0.00,,CLR,0.00,VWS V14.01,2013-03-17 15:49:00,
2013-03-17 10:54:00,19.2,-3.4,29.26,North,0,0.0,0.0,36,0.00,,CLR,0.00,VWS V14.01,2013-03-17 15:54:00,
2013-03-17 10:59:00,19.6,-3.6,29.26,North,0,0.0,0.0,35,0.00,,CLR,0.00,VWS V14.01,2013-03-17 15:59:00,
2013-03-17 11:04:00,19.9,-3.3,29.26,North,0,0.0,0.0,35,0.00,,CLR,0.00,VWS V14.01,2013-03-17 16:04:00,
2013-03-17 11:09:00,20.6,-2.7,29.26,North,0,0.0,0.0,35,0.00,,CLR,0.00,VWS V14.01,2013-03-17 16:09:00,
2013-03-17 11:14:00,20.6,-2.7,29.26,North,0,0.0,0.0,35,0.00,,CLR,0.00,VWS V14.01,2013-03-17 16:14:00,
2013-03-17 11:19:00,21.0,-2.3,29.26,North,0,0.0,0.0,35,0.00,,CLR,0.00,VWS V14.01,2013-03-17 16:19:00,
2013-03-17 11:24:00,22.1,-2.0,29.26,North,0,0.0,0.0,34,0.00,,CLR,0.00,VWS V14.01,2013-03-17 16:24:00,
2013-03-17 11:29:00,22.3,-1.8,29.26,North,0,0.0,0.0,34,0.00,,CLR,0.00,VWS V14.01,2013-03-17 16:29:00,
2013-03-17 11:34:00,22.1,-2.0,29.26,North,0,0.0,0.0,34,0.00,,CLR,0.00,VWS V14.01,2013-03-17 16:34:00,
2013-03-17 11:39:00,23.2,-1.7,29.26,North,0,0.0,0.0,33,0.00,,CLR,0.00,VWS V14.01,2013-03-17 16:39:00,
2013-03-17 11:44:00,23.3,-1.5,29.26,North,0,0.0,0.0,33,0.00,,CLR,0.00,VWS V14.01,2013-03-17 16:44:00,
2013-03-17 11:49:00,23.5,-1.3,29.26,North,0,0.0,0.0,33,0.00,,CLR,0.00,VWS V14.01,2013-03-17 16:49:00,
2013-03-17 11:54:00,23.3,-1.5,29.26,North,0,0.0,0.0,33,0.00,,CLR,0.00,VWS V14.01,2013-03-17 16:54:00,
2013-03-17 11:59:00,23.2,-1.7,29.26,North,0,0.0,0.0,33,0.00,,CLR,0.00,VWS V14.01,2013-03-17 16:59:00,
2013-03-17 12:04:00,23.2,-1.7,29.23,North,0,0.0,0.0,33,0.00,,CLR,0.00,VWS V14.01,2013-03-17 17:04:00,
2013-03-17 12:09:00,24.2,-0.7,29.23,North,0,0.0,0.0,33,0.00,,CLR,0.00,VWS V14.01,2013-03-17 17:09:00,
2013-03-17 12:14:00,24.4,-0.6,29.23,North,0,0.0,0.0,33,0.00,,CLR,0.00,VWS V14.01,2013-03-17 17:14:00,
2013-03-17 12:19:00,24.2,-1.4,29.23,North,0,0.0,0.0,32,0.00,,CLR,0.00,VWS V14.01,2013-03-17 17:19:00,
2013-03-17 12:24:00,24.2,-0.7,29.23,North,0,0.0,0.0,33,0.00,,CLR,0.00,VWS V14.01,2013-03-17 17:24:00,
2013-03-17 12:29:00,25.3,-0.4,29.23,North,0,0.0,0.0,32,0.00,,CLR,0.00,VWS V14.01,2013-03-17 17:29:00,
2013-03-17 12:34:00,26.8,0.9,29.23,North,0,0.0,0.0,32,0.00,,CLR,0.00,VWS V14.01,2013-03-17 17:34:00,
2013-03-17 12:39:00,26.6,0.7,29.23,North,0,0.0,0.0,32,0.00,,CLR,0.00,VWS V14.01,2013-03-17 17:39:00,
2013-03-17 12:44:00,26.4,0.6,29.23,North,0,0.0,0.0,32,0.00,,CLR,0.00,VWS V14.01,2013-03-17 17:44:00,
2013-03-17 12:49:00,26.6,0.0,29.23,North,0,0.0,0.0,31,0.00,,CLR,0.00,VWS V14.01,2013-03-17 17:49:00,
2013-03-17 12:54:00,25.5,-0.2,29.23,North,0,0.0,0.0,32,0.00,,CLR,0.00,VWS V14.01,2013-03-17 17:54:00,
2013-03-17 12:59:00,25.9,0.1,29.23,North,0,0.0,0.0,32,0.00,,CLR,0.00,VWS V14.01,2013-03-17 17:59:00,
2013-03-17 13:04:00,26.2,0.4,29.21,North,0,0.0,0.0,32,0.00,,CLR,0.00,VWS V14.01,2013-03-17 18:04:00,
2013-03-17 13:09:00,25.5,-0.2,29.21,North,0,0.0,0.0,32,0.00,,CLR,0.00,VWS V14.01,2013-03-17 18:09:00,
2013-03-17 13:14:00,25.3,-0.4,29.21,North,0,0.0,0.0,32,0.00,,CLR,0.00,VWS V14.01,2013-03-17 18:14:00,
2013-03-17 13:19:00,26.2,0.4,29.21,North,0,0.0,0.0,32,0.00,,CLR,0.00,VWS V14.01,2013-03-17 18:19:00,
2013-03-17 13:24:00,26.4,0.6,29.21,North,0,0.0,0.0,32,0.00,,CLR,0.00,VWS V14.01,2013-03-17 18:24:00,
2013-03-17 13:29:00,25.9,0.1,29.21,North,0,0.0,0.0,32,0.00,,CLR,0.00,VWS V14.01,2013-03-17 18:29:00,
2013-03-17 13:34:00,26.2,0.4,29.21,North,0,0.0,0.0,32,0.00,,CLR,0.00,VWS V14.01,2013-03-17 18:34:00,
2013-03-17 13:39:00,26.4,0.6,29.21,North,0,0.0,0.0,32,0.00,,CLR,0.00,VWS V14.01,2013-03-17 18:39:00,
2013-03-17 13:44:00,26.9,0.3,29.21,North,0,0.0,0.0,31,0.00,,CLR,0.00,VWS V14.01,2013-03-17 18:44:00,
2013-03-17 13:49:00,26.8,0.2,29.21,North,0,0.0,0.0,31,0.00,,CLR,0.00,VWS V14.01,2013-03-17 18:49:00,
2013-03-17 13:54:00,26.6,0.0,29.21,North,0,0.0,0.0,31,0.00,,CLR,0.00,VWS V14.01,2013-03-17 18:54:00,
2013-03-17 13:59:00,27.7,1.0,29.21,North,0,0.0,0.0,31,0.00,,CLR,0.00,VWS V14.01,2013-03-17 18:59:00,
2013-03-17 14:04:00,27.7,1.0,29.18,North,0,0.0,0.0,31,0.00,,OVC100,0.00,VWS V14.01,2013-03-17 19:04:00,
2013-03-17 14:09:00,28.6,1.8,29.18,North,0,0.0,0.0,31,0.00,,OVC100,0.00,VWS V14.01,2013-03-17 19:09:00,
2013-03-17 14:14:00,28.6,1.8,29.18,North,0,0.0,0.0,31,0.00,,OVC100,0.00,VWS V14.01,2013-03-17 19:14:00,
2013-03-17 14:19:00,28.0,1.3,29.18,North,0,0.0,0.0,31,0.00,,OVC100,0.00,VWS V14.01,2013-03-17 19:19:00,
2013-03-17 14:24:00,29.3,2.4,29.18,North,0,0.0,0.0,31,0.00,,OVC100,0.00,VWS V14.01,2013-03-17 19:24:00,
2013-03-17 14:29:00,29.6,2.7,29.18,North,0,0.0,0.0,31,0.00,,OVC100,0.00,VWS V14.01,2013-03-17 19:29:00,
2013-03-17 14:34:00,30.0,3.0,29.15,North,0,0.0,0.0,31,0.00,,OVC100,0.00,VWS V14.01,2013-03-17 19:34:00,
2013-03-17 14:39:00,30.4,3.4,29.15,North,0,0.0,0.0,31,0.00,,OVC100,0.00,VWS V14.01,2013-03-17 19:39:00,
2013-03-17 14:44:00,28.7,1.9,29.15,North,0,0.0,0.0,31,0.00,,OVC100,0.00,VWS V14.01,2013-03-17 19:44:00,
2013-03-17 14:49:00,28.2,1.5,29.15,North,0,0.0,0.0,31,0.00,,OVC100,0.00,VWS V14.01,2013-03-17 19:49:00,
2013-03-17 14:54:00,29.1,2.2,29.15,North,0,0.0,0.0,31,0.00,,OVC100,0.00,VWS V14.01,2013-03-17 19:54:00,
2013-03-17 15:00:00,28.7,1.9,29.15,North,0,0.0,0.0,31,0.00,,OVC100,0.00,VWS V14.01,2013-03-17 20:00:00,
2013-03-17 15:05:00,28.7,1.9,29.15,North,0,0.0,0.0,31,0.00,,SCT100,0.00,VWS V14.01,2013-03-17 20:05:00,
2013-03-17 15:10:00,29.6,2.7,29.15,North,0,0.0,0.0,31,0.00,,SCT100,0.00,VWS V14.01,2013-03-17 20:10:00,
2013-03-17 15:15:00,30.0,2.3,29.15,North,0,0.0,0.0,30,0.00,,SCT100,0.00,VWS V14.01,2013-03-17 20:15:00,
2013-03-17 15:20:00,28.9,1.4,29.15,North,0,0.0,0.0,30,0.00,,SCT100,0.00,VWS V14.01,2013-03-17 20:20:00,
2013-03-17 15:25:00,28.2,1.5,29.15,North,0,0.0,0.0,31,0.00,,SCT100,0.00,VWS V14.01,2013-03-17 20:25:00,
2013-03-17 15:30:00,28.2,1.5,29.15,North,0,0.0,0.0,31,0.00,,SCT100,0.00,VWS V14.01,2013-03-17 20:30:00,
2013-03-17 15:35:00,28.2,1.5,29.12,North,0,0.0,0.0,31,0.00,,SCT100,0.00,VWS V14.01,2013-03-17 20:35:00,
2013-03-17 15:40:00,29.1,2.2,29.12,North,0,0.0,0.0,31,0.00,,SCT100,0.00,VWS V14.01,2013-03-17 20:40:00,
2013-03-17 15:45:00,28.9,2.1,29.12,North,0,0.0,0.0,31,0.00,,SCT100,0.00,VWS V14.01,2013-03-17 20:45:00,
2013-03-17 15:50:00,29.1,2.2,29.09,North,0,0.0,0.0,31,0.00,,SCT100,0.00,VWS V14.01,2013-03-17 20:50:00,
2013-03-17 15:55:00,28.4,0.9,29.09,North,0,0.0,0.0,30,0.00,,SCT100,0.00,VWS V14.01,2013-03-17 20:55:00,
2013-03-17 16:00:00,28.6,1.8,29.09,North,0,0.0,0.0,31,0.00,,SCT100,0.00,VWS V14.01,2013-03-17 21:00:00,
2013-03-17 16:06:00,28.6,1.8,29.12,North,0,0.0,0.0,31,0.00,,CLR,0.00,VWS V14.01,2013-03-17 21:06:00,
2013-03-17 16:12:00,28.6,1.8,29.12,North,0,0.0,0.0,31,0.00,,CLR,0.00,VWS V14.01,2013-03-17 21:12:00,
2013-03-17 16:17:00,28.4,1.6,29.12,North,0,0.0,0.0,31,0.00,,CLR,0.00,VWS V14.01,2013-03-17 21:17:00,
2013-03-17 16:22:00,28.7,1.9,29.09,North,0,0.0,0.0,31,0.00,,CLR,0.00,VWS V14.01,2013-03-17 21:22:00,
2013-03-17 16:27:00,28.9,2.1,29.09,North,0,0.0,0.0,31,0.00,,CLR,0.00,VWS V14.01,2013-03-17 21:27:00,
2013-03-17 16:33:00,29.6,2.7,29.09,North,0,0.0,0.0,31,0.00,,CLR,0.00,VWS V14.01,2013-03-17 21:33:00,
2013-03-17 16:38:00,29.6,2.7,29.09,North,0,0.0,0.0,31,0.00,,CLR,0.00,VWS V14.01,2013-03-17 21:38:00,
2013-03-17 16:43:00,29.1,2.2,29.09,North,0,0.0,0.0,31,0.00,,CLR,0.00,VWS V14.01,2013-03-17 21:43:00,
2013-03-17 16:48:00,28.6,1.8,29.06,North,0,0.0,0.0,31,0.00,,CLR,0.00,VWS V14.01,2013-03-17 21:48:00,
2013-03-17 16:53:00,28.2,1.5,29.06,North,0,0.0,0.0,31,0.00,,CLR,0.00,VWS V14.01,2013-03-17 21:53:00,
2013-03-17 16:59:00,28.0,1.3,29.06,North,0,0.0,0.0,31,0.00,,CLR,0.00,VWS V14.01,2013-03-17 21:59:00,
2013-03-17 17:04:00,28.0,1.3,29.09,North,0,0.0,0.0,31,0.00,,SCT100,0.00,VWS V14.01,2013-03-17 22:04:00,
2013-03-17 17:09:00,28.7,1.9,29.09,North,0,0.0,0.0,31,0.00,,SCT100,0.00,VWS V14.01,2013-03-17 22:09:00,
2013-03-17 17:15:00,28.6,1.8,29.09,North,0,0.0,0.0,31,0.00,,SCT100,0.00,VWS V14.01,2013-03-17 22:15:00,
2013-03-17 17:20:00,28.6,1.8,29.06,North,0,0.0,0.0,31,0.00,,SCT100,0.00,VWS V14.01,2013-03-17 22:20:00,
2013-03-17 17:25:00,28.4,1.6,29.06,North,0,0.0,0.0,31,0.00,,SCT100,0.00,VWS V14.01,2013-03-17 22:25:00,
2013-03-17 17:30:00,28.2,1.5,29.06,North,0,0.0,0.0,31,0.00,,SCT100,0.00,VWS V14.01,2013-03-17 22:30:00,
2013-03-17 17:35:00,27.8,1.1,29.06,North,0,0.0,0.0,31,0.00,,SCT100,0.00,VWS V14.01,2013-03-17 22:35:00,
2013-03-17 17:41:00,27.8,1.1,29.06,North,0,0.0,0.0,31,0.00,,SCT100,0.00,VWS V14.01,2013-03-17 22:41:00,
2013-03-17 17:46:00,28.0,1.3,29.06,North,0,0.0,0.0,31,0.00,,SCT100,0.00,VWS V14.01,2013-03-17 22:46:00,
2013-03-17 17:51:00,28.0,1.3,29.06,North,0,0.0,0.0,31,0.00,,SCT100,0.00,VWS V14.01,2013-03-17 22:51:00,
2013-03-17 17:57:00,28.0,1.3,29.06,North,0,0.0,0.0,31,0.00,,SCT100,0.00,VWS V14.01,2013-03-17 22:57:00,
2013-03-17 18:02:00,27.5,0.8,29.06,North,0,0.0,0.0,31,0.00,,BKN100,0.00,VWS V14.01,2013-03-17 23:02:00,
2013-03-17 18:08:00,27.1,0.5,29.06,North,0,0.0,0.0,31,0.00,,BKN100,0.00,VWS V14.01,2013-03-17 23:08:00,
2013-03-17 18:13:00,26.8,0.2,29.06,North,0,0.0,0.0,31,0.00,,BKN100,0.00,VWS V14.01,2013-03-17 23:13:00,
2013-03-17 18:18:00,26.6,0.7,29.06,North,0,0.0,0.0,32,0.00,,BKN100,0.00,VWS V14.01,2013-03-17 23:18:00,
2013-03-17 18:23:00,26.2,0.4,29.06,North,0,0.0,0.0,32,0.00,,BKN100,0.00,VWS V14.01,2013-03-17 23:23:00,
2013-03-17 18:29:00,26.0,0.2,29.06,North,0,0.0,0.0,32,0.00,,BKN100,0.00,VWS V14.01,2013-03-17 23:29:00,
2013-03-17 18:34:00,25.9,0.1,29.06,North,0,0.0,0.0,32,0.00,,BKN100,0.00,VWS V14.01,2013-03-17 23:34:00,
2013-03-17 18:39:00,25.9,0.7,29.06,North,0,0.0,0.0,33,0.00,,BKN100,0.00,VWS V14.01,2013-03-17 23:39:00,
2013-03-17 18:44:00,25.7,0.6,29.06,North,0,0.0,0.0,33,0.00,,BKN100,0.00,VWS V14.01,2013-03-17 23:44:00,
2013-03-17 18:50:00,25.3,0.2,29.03,North,0,0.0,0.0,33,0.00,,BKN100,0.00,VWS V14.01,2013-03-17 23:50:00,
2013-03-17 18:55:00,25.3,0.2,29.03,North,0,0.0,0.0,33,0.00,,BKN100,0.00,VWS V14.01,2013-03-17 23:55:00,
2013-03-17 19:00:00,25.1,0.1,29.03,North,0,0.0,0.0,33,0.00,,BKN100,0.00,VWS V14.01,2013-03-18 00:00:00,
2013-03-17 19:05:00,25.0,-0.1,29.03,North,0,0.0,0.0,33,0.00,,SCT100,0.00,VWS V14.01,2013-03-18 00:05:00,
2013-03-17 19:10:00,25.0,0.6,29.03,North,0,0.0,0.0,34,0.00,,SCT100,0.00,VWS V14.01,2013-03-18 00:10:00,
2013-03-17 19:16:00,24.8,0.4,29.03,North,0,0.0,0.0,34,0.00,,SCT100,0.00,VWS V14.01,2013-03-18 00:16:00,
2013-03-17 19:21:00,24.6,0.9,29.03,North,0,0.0,0.0,35,0.00,,SCT100,0.00,VWS V14.01,2013-03-18 00:21:00,
2013-03-17 19:26:00,24.4,0.7,29.03,North,0,0.0,0.0,35,0.00,,SCT100,0.00,VWS V14.01,2013-03-18 00:26:00,
2013-03-17 19:32:00,24.2,0.6,29.03,North,0,0.0,0.0,35,0.00,,SCT100,0.00,VWS V14.01,2013-03-18 00:32:00,
2013-03-17 19:38:00,24.1,0.4,29.03,North,0,0.0,0.0,35,0.00,,SCT100,0.00,VWS V14.01,2013-03-18 00:38:00,
2013-03-17 19:43:00,23.9,0.2,29.03,North,0,0.0,0.0,35,0.00,,SCT100,0.00,VWS V14.01,2013-03-18 00:43:00,
2013-03-17 19:48:00,23.7,0.7,29.03,North,0,0.0,0.0,36,0.00,,SCT100,0.00,VWS V14.01,2013-03-18 00:48:00,
2013-03-17 19:53:00,23.5,0.5,29.03,North,0,0.0,0.0,36,0.00,,SCT100,0.00,VWS V14.01,2013-03-18 00:53:00,
2013-03-17 19:58:00,23.5,0.5,29.03,North,0,0.0,0.0,36,0.00,,SCT100,0.00,VWS V14.01,2013-03-18 00:58:00,
2013-03-17 20:04:00,23.3,0.3,29.03,North,0,0.0,0.0,36,0.00,,FEW100,0.00,VWS V14.01,2013-03-18 01:04:00,
2013-03-17 20:09:00,23.3,0.3,29.03,North,0,0.0,0.0,36,0.00,,FEW100,0.00,VWS V14.01,2013-03-18 01:09:00,
2013-03-17 20:14:00,23.2,0.2,29.03,North,0,0.0,0.0,36,0.00,,FEW100,0.00,VWS V14.01,2013-03-18 01:14:00,
2013-03-17 20:20:00,23.0,0.6,29.03,North,0,0.0,0.0,37,0.00,,FEW100,0.00,VWS V14.01,2013-03-18 01:20:00,
2013-03-17 20:25:00,22.8,1.0,29.03,North,0,0.0,0.0,38,0.00,,FEW100,0.00,VWS V14.01,2013-03-18 01:25:00,
2013-03-17 20:30:00,22.6,0.9,29.03,North,0,0.0,0.0,38,0.00,,FEW100,0.00,VWS V14.01,2013-03-18 01:30:00,
2013-03-17 20:35:00,22.6,0.9,29.03,North,0,0.0,0.0,38,0.00,,FEW100,0.00,VWS V14.01,2013-03-18 01:35:00,
2013-03-17 20:40:00,22.4,1.2,29.03,North,0,0.0,0.0,39,0.00,,FEW100,0.00,VWS V14.01,2013-03-18 01:40:00,
2013-03-17 20:45:00,22.3,1.1,29.03,North,0,0.0,0.0,39,0.00,,FEW100,0.00,VWS V14.01,2013-03-18 01:45:00,
2013-03-17 20:51:00,22.1,0.9,29.03,North,0,0.0,0.0,39,0.00,,FEW100,0.00,VWS V14.01,2013-03-18 01:51:00,
2013-03-17 20:56:00,21.7,1.1,29.03,North,0,0.0,0.0,40,0.00,,FEW100,0.00,VWS V14.01,2013-03-18 01:56:00,
2013-03-17 21:02:00,21.7,1.7,29.03,North,0,0.0,0.0,41,0.00,,CLR,0.00,VWS V14.01,2013-03-18 02:02:00,
2013-03-17 21:07:00,21.5,2.0,29.03,North,0,0.0,0.0,42,0.00,,CLR,0.00,VWS V14.01,2013-03-18 02:07:00,
2013-03-17 21:13:00,21.4,1.9,29.03,North,0,0.0,0.0,42,0.00,,CLR,0.00,VWS V14.01,2013-03-18 02:13:00,
2013-03-17 21:18:00,21.4,1.9,29.03,North,0,0.0,0.0,42,0.00,,CLR,0.00,VWS V14.01,2013-03-18 02:18:00,
2013-03-17 21:23:00,21.2,1.7,29.03,North,0,0.0,0.0,42,0.00,,CLR,0.00,VWS V14.01,2013-03-18 02:23:00,
2013-03-17 21:28:00,21.2,1.7,29.03,North,0,0.0,0.0,42,0.00,,CLR,0.00,VWS V14.01,2013-03-18 02:28:00,
2013-03-17 21:33:00,21.0,2.0,29.03,North,0,0.0,0.0,43,0.00,,CLR,0.00,VWS V14.01,2013-03-18 02:33:00,
2013-03-17 21:39:00,21.0,2.0,29.03,North,0,0.0,0.0,43,0.00,,CLR,0.00,VWS V14.01,2013-03-18 02:39:00,
2013-03-17 21:44:00,21.0,2.0,29.03,North,0,0.0,0.0,43,0.00,,CLR,0.00,VWS V14.01,2013-03-18 02:44:00,
2013-03-17 21:49:00,20.8,1.9,29.00,North,0,0.0,0.0,43,0.00,,CLR,0.00,VWS V14.01,2013-03-18 02:49:00,
2013-03-17 21:55:00,20.6,1.7,29.00,North,0,0.0,0.0,43,0.00,,CLR,0.00,VWS V14.01,2013-03-18 02:55:00,
2013-03-17 22:01:00,20.5,2.0,29.00,North,0,0.0,0.0,44,0.00,,CLR,0.00,VWS V14.01,2013-03-18 03:01:00,
2013-03-17 22:07:00,20.5,2.0,29.03,North,0,0.0,0.0,44,0.00,,CLR,0.00,VWS V14.01,2013-03-18 03:07:00,
2013-03-17 22:12:00,20.3,1.9,29.03,North,0,0.0,0.0,44,0.00,,CLR,0.00,VWS V14.01,2013-03-18 03:12:00,
2013-03-17 22:18:00,20.3,1.9,29.00,North,0,0.0,0.0,44,0.00,,CLR,0.00,VWS V14.01,2013-03-18 03:18:00,
2013-03-17 22:24:00,20.3,1.9,29.00,North,0,0.0,0.0,44,0.00,,CLR,0.00,VWS V14.01,2013-03-18 03:24:00,
2013-03-17 22:29:00,20.1,1.7,29.00,North,0,0.0,0.0,44,0.00,,CLR,0.00,VWS V14.01,2013-03-18 03:29:00,
2013-03-17 22:34:00,20.1,1.7,29.00,North,0,0.0,0.0,44,0.00,,CLR,0.00,VWS V14.01,2013-03-18 03:34:00,
2013-03-17 22:39:00,20.1,1.7,29.00,North,0,0.0,0.0,44,0.00,,CLR,0.00,VWS V14.01,2013-03-18 03:39:00,
2013-03-17 22:45:00,19.9,2.0,29.00,North,0,0.0,0.0,45,0.00,,CLR,0.00,VWS V14.01,2013-03-18 03:45:00,
2013-03-17 22:50:00,19.9,2.0,29.00,North,0,0.0,0.0,45,0.00,,CLR,0.00,VWS V14.01,2013-03-18 03:50:00,
2013-03-17 22:55:00,19.9,2.0,29.00,North,0,0.0,0.0,45,0.00,,CLR,0.00,VWS V14.01,2013-03-18 03:55:00,
2013-03-17 23:00:00,19.7,1.9,29.00,North,0,0.0,0.0,45,0.00,,CLR,0.00,VWS V14.01,2013-03-18 04:00:00,
2013-03-17 23:02:00,19.7,1.9,29.00,North,0,0.0,0.0,45,0.00,,CLR,0.00,VWS V14.01,2013-03-18 04:02:00,
2013-03-17 23:03:00,19.7,1.9,29.00,North,0,0.0,0.0,45,0.00,,CLR,0.00,VWS V14.01,2013-03-18 04:03:00,
2013-03-17 23:08:00,19.6,1.7,29.00,North,0,0.0,0.0,45,0.00,,CLR,0.00,VWS V14.01,2013-03-18 04:08:00,
2013-03-17 23:14:00,19.4,1.5,29.00,North,0,0.0,0.0,45,0.00,,CLR,0.00,VWS V14.01,2013-03-18 04:14:00,
2013-03-17 23:19:00,19.2,1.8,29.00,North,0,0.0,0.0,46,0.00,,CLR,0.00,VWS V14.01,2013-03-18 04:19:00,
2013-03-17 23:24:00,19.2,1.8,29.00,North,0,0.0,0.0,46,0.00,,CLR,0.00,VWS V14.01,2013-03-18 04:24:00,
2013-03-17 23:30:00,19.2,1.8,29.00,North,0,0.0,0.0,46,0.00,,CLR,0.00,VWS V14.01,2013-03-18 04:30:00,
2013-03-17 23:35:00,19.0,1.7,28.97,North,0,0.0,0.0,46,0.00,,CLR,0.00,VWS V14.01,2013-03-18 04:35:00,
2013-03-17 23:40:00,19.0,1.7,28.97,North,0,0.0,0.0,46,0.00,,CLR,0.00,VWS V14.01,2013-03-18 04:40:00,
2013-03-17 23:45:00,19.0,1.7,28.97,North,0,0.0,0.0,46,0.00,,CLR,0.00,VWS V14.01,2013-03-18 04:45:00,
2013-03-17 23:51:00,18.8,2.0,28.97,North,0,0.0,0.0,47,0.00,,CLR,0.00,VWS V14.01,2013-03-18 04:51:00,
2013-03-17 23:56:00,18.7,1.8,28.97,North,0,0.0,0.0,47,0.00,,CLR,0.00,VWS V14.01,2013-03-18 04:56:00,